FW8396 Weather Reports


Display with metric or nautical units.
time (UTC)temp
F
wind
direction
speed
MPH
gust
MPH
rain 1hr
in
rain 24hr
in
rain mn
in
humidity
%
barometer
mb
20260905073038 82 0 0.0 0.0 0.00 0.05 0.00 85 1014.6
20260905071542 83 0 0.0 0.0 0.00 0.05 0.00 85 1014.9
20260905070100 83 0 0.0 0.0 0.00 0.05 0.00 85 1014.9
20260905064535 83 0 0.0 0.0 0.00 0.05 0.00 84 1015.2
20260905063033 83 0 0.0 0.0 0.00 0.05 0.00 84 1015.2
20260905061535 83 0 0.0 0.0 0.00 0.05 0.00 84 1015.4
20260905060035 84 0 0.0 1.0 0.00 0.05 0.00 83 1015.3
20260905054547 84 0 1.0 4.0 0.00 0.05 0.00 83 1015.2
20260905053042 84 0 0.0 4.0 0.00 0.05 0.00 83 1015.2
20260905051541 84 140 0.0 4.0 0.00 0.05 0.00 83 1015.1
20260905050042 84 0 1.0 3.0 0.00 0.05 0.00 83 1015.1
20260905044534 84 0 0.0 3.0 0.00 0.05 0.05 82 1015.1
20260905043034 85 0 0.0 3.0 0.00 0.05 0.05 82 1015.2
20260905041541 85 0 1.0 6.0 0.00 0.05 0.05 81 1015.3
20260905040033 85 132 2.0 8.0 0.00 0.05 0.05 81 1015.4
20260905034539 85 0 2.0 7.0 0.00 0.05 0.05 81 1015.4
20260905033048 85 140 0.0 4.0 0.00 0.05 0.05 80 1015.4
20260905031539 85 154 2.0 6.0 0.00 0.05 0.05 80 1015.6
20260905030044 86 167 2.0 6.0 0.00 0.05 0.05 79 1015.4
20260905024534 86 125 1.0 6.0 0.00 0.05 0.05 78 1015.4
20260905023038 86 142 1.0 7.0 0.00 0.05 0.05 77 1015.2
20260905021536 87 0 1.0 6.0 0.00 0.05 0.05 77 1015.2
20260905020033 87 137 1.0 12.0 0.00 0.05 0.05 76 1014.9
20260905014535 88 113 1.0 8.0 0.00 0.05 0.05 75 1014.9
20260905013035 88 80 1.0 4.0 0.00 0.05 0.05 75 1014.7
20260905011535 88 110 1.0 4.0 0.00 0.05 0.05 74 1014.5
20260905010036 89 127 2.0 6.0 0.00 0.05 0.05 72 1014.5
20260905004536 89 91 3.0 7.0 0.00 0.05 0.05 72 1014.5
20260905003035 89 88 2.0 10.0 0.00 0.05 0.05 72 1014.2
20260905001535 89 108 4.0 9.0 0.00 0.05 0.05 71 1013.8
20260905000040 90 98 4.0 9.0 0.00 0.05 0.05 70 1013.9
20260904234544 90 66 3.0 8.0 0.00 0.05 0.05 69 1013.9
20260904233036 91 121 3.0 8.0 0.00 0.05 0.05 67 1013.8
20260904231536 91 0 1.0 6.0 0.00 0.05 0.05 66 1013.8
20260904230034 92 121 3.0 8.0 0.00 0.05 0.05 66 1013.7
20260904224541 92 96 3.0 7.0 0.00 0.05 0.05 66 1013.8
20260904223037 91 62 3.0 8.0 0.00 0.05 0.05 65 1013.6
20260904221537 91 84 3.0 8.0 0.00 0.05 0.05 66 1013.7
20260904220036 91 57 4.0 8.0 0.00 0.05 0.05 67 1013.9
20260904214534 91 90 5.0 11.0 0.00 0.05 0.05 67 1014.0
20260904213034 92 53 3.0 10.0 0.00 0.05 0.05 66 1014.0
20260904211535 93 71 5.0 13.0 0.00 0.05 0.05 63 1014.1
20260904210035 96 0 3.0 8.0 0.00 0.05 0.05 56 1014.1
20260904204533 95 164 1.0 10.0 0.00 0.05 0.05 58 1014.3
20260904203042 94 121 2.0 7.0 0.00 0.05 0.05 58 1014.5
20260904201534 94 79 2.0 5.0 0.00 0.05 0.05 60 1014.7
20260904200034 95 172 2.0 7.0 0.00 0.05 0.05 59 1014.7
20260904194535 94 0 1.0 9.0 0.00 0.05 0.05 59 1014.9
20260904193034 93 201 1.0 6.0 0.00 0.05 0.05 63 1015.2
20260904191536 91 169 1.0 4.0 0.00 0.05 0.05 66 1015.3
20260904190034 90 271 2.0 5.0 0.00 0.05 0.05 71 1015.7
20260904184537 89 180 2.0 10.0 0.00 0.05 0.05 74 1016.2
20260904183034 89 226 3.0 5.0 0.00 0.05 0.05 74 1016.2
20260904181536 87 171 1.0 7.0 0.00 0.05 0.05 76 1016.6
20260904180036 87 161 3.0 9.0 0.00 0.05 0.05 75 1016.9
20260904174533 87 168 3.0 8.0 0.00 0.05 0.05 73 1016.7
20260904173037 89 74 1.0 5.0 0.00 0.05 0.05 76 1016.6
20260904171546 88 120 2.0 9.0 0.00 0.05 0.05 77 1016.7
20260904170034 88 0 2.0 6.0 0.00 0.05 0.05 77 1017.0
20260904164537 87 88 2.0 9.0 0.00 0.05 0.05 81 1016.7
20260904163038 86 142 3.0 9.0 0.00 0.05 0.05 83 1016.8
20260904161534 85 98 2.0 6.0 0.00 0.05 0.05 85 1016.7
20260904160047 85 75 2.0 6.0 0.00 0.05 0.05 86 1016.5
20260904154539 84 44 1.0 5.0 0.00 0.05 0.05 87 1016.8
20260904153035 84 66 1.0 5.0 0.00 0.05 0.05 87 1016.4
20260904151534 83 0 1.0 5.0 0.00 0.05 0.05 88 1016.3
20260904150042 83 59 1.0 4.0 0.00 0.05 0.05 88 1016.3
20260904144538 83 0 0.0 3.0 0.00 0.06 0.05 87 1016.1
20260904143034 84 70 1.0 4.0 0.00 0.06 0.05 87 1016.1
20260904141535 84 70 1.0 3.0 0.00 0.06 0.05 89 1015.9
20260904140050 83 65 0.0 4.0 0.00 0.06 0.05 91 1015.9
20260904134542 82 151 0.0 2.0 0.00 0.06 0.05 93 1015.8
20260904133035 81 0 0.0 0.0 0.00 0.06 0.05 93 1015.8
20260904131543 80 0 0.0 1.0 0.00 0.06 0.05 93 1015.9
20260904130045 80 0 0.0 1.0 0.00 0.06 0.05 93 1015.9
20260904124536 80 0 0.0 3.0 0.00 0.06 0.05 93 1015.7
20260904123035 80 0 0.0 0.0 0.00 0.06 0.05 92 1015.3
20260904121533 80 0 0.0 1.0 0.00 0.06 0.05 92 1015.2
20260904120034 80 0 0.0 2.0 0.00 0.06 0.05 92 1015.1
20260904114534 80 0 0.0 1.0 0.00 0.06 0.05 92 1015.1
20260904113036 80 0 0.0 0.0 0.00 0.06 0.05 92 1015.0
20260904111540 80 167 0.0 2.0 0.00 0.06 0.05 92 1015.0
20260904110034 80 0 0.0 0.0 0.00 0.06 0.05 92 1015.1
20260904104536 80 0 0.0 0.0 0.00 0.06 0.05 92 1015.2
20260904103043 80 0 0.0 0.0 0.00 0.06 0.05 91 1015.0
20260904101535 80 0 0.0 1.0 0.00 0.06 0.05 91 1014.9
20260904100033 80 0 0.0 1.0 0.00 0.06 0.05 91 1014.7
20260904094533 80 0 0.0 1.0 0.00 0.06 0.05 91 1014.5
20260904093038 81 0 0.0 3.0 0.00 0.06 0.05 90 1014.5
20260904091535 81 0 0.0 1.0 0.02 0.06 0.05 90 1014.6
20260904090039 81 0 0.0 0.0 0.05 0.06 0.05 89 1014.7
20260904084535 82 0 0.0 0.0 0.05 0.06 0.05 88 1014.7
20260904083034 82 0 0.0 1.0 0.05 0.06 0.05 87 1014.8
20260904081534 83 0 0.0 1.0 0.03 0.04 0.03 86 1014.7
20260904080033 83 0 0.0 4.0 0.00 0.01 0.00 84 1014.7
20260904074536 83 181 0.0 4.0 0.00 0.01 0.00 84 1014.7